| time (UTC) | temp C | wind direction | speed KPH | gust KPH | rain 1hr cm | rain 24hr cm | rain mn cm | humidity % | barometer mb |
| 20260509213028 | 18 | 207 | 1.6 | 8.0 | 0.00 | 0.03 | 0.03 | 60 | 1005.5 |
| 20260509211529 | 18 | 149 | 1.6 | 8.0 | 0.00 | 0.03 | 0.03 | 62 | 1005.7 |
| 20260509210037 | 17 | 240 | 3.2 | 6.4 | 0.03 | 0.03 | 0.03 | 63 | 1005.9 |
| 20260509204539 | 17 | 203 | 3.2 | 12.9 | 0.03 | 0.03 | 0.03 | 63 | 1005.8 |
| 20260509203031 | 17 | 207 | 3.2 | 11.3 | 0.03 | 0.03 | 0.03 | 67 | 1006.2 |
| 20260509201531 | 17 | 118 | 1.6 | 9.7 | 0.03 | 0.03 | 0.03 | 68 | 1006.2 |
| 20260509200029 | 17 | 192 | 1.6 | 6.4 | 0.00 | 0.00 | 0.00 | 71 | 1006.6 |
| 20260509194534 | 16 | 218 | 1.6 | 6.4 | 0.00 | 0.00 | 0.00 | 70 | 1006.5 |
| 20260509193029 | 16 | 186 | 1.6 | 11.3 | 0.00 | 0.00 | 0.00 | 77 | 1007.0 |
| 20260509191531 | 15 | 159 | 1.6 | 8.0 | 0.00 | 0.00 | 0.00 | 77 | 1007.2 |
| 20260509190032 | 15 | 248 | 1.6 | 6.4 | 0.00 | 0.00 | 0.00 | 77 | 1007.3 |
| 20260509184541 | 15 | 132 | 1.6 | 8.0 | 0.00 | 0.00 | 0.00 | 81 | 1007.2 |
| 20260509183032 | 15 | 240 | 1.6 | 4.8 | 0.00 | 0.00 | 0.00 | 84 | 1007.2 |
| 20260509181529 | 13 | 142 | 1.6 | 4.8 | 0.00 | 0.00 | 0.00 | 87 | 1007.3 |
| 20260509180029 | 13 | 208 | 3.2 | 6.4 | 0.00 | 0.00 | 0.00 | 92 | 1007.5 |
| 20260509174535 | 12 | 157 | 1.6 | 4.8 | 0.00 | 0.00 | 0.00 | 96 | 1007.5 |
| 20260509173032 | 11 | 229 | 1.6 | 6.4 | 0.00 | 0.00 | 0.00 | 97 | 1007.7 |
| 20260509171533 | 11 | 199 | 1.6 | 6.4 | 0.00 | 0.00 | 0.00 | 97 | 1007.6 |
| 20260509170030 | 11 | 227 | 0.0 | 3.2 | 0.00 | 0.00 | 0.00 | 97 | 1007.7 |
| 20260509164528 | 11 | 240 | 1.6 | 6.4 | 0.00 | 0.00 | 0.00 | 97 | 1007.6 |
| 20260509163027 | 10 | 223 | 1.6 | 6.4 | 0.00 | 0.00 | 0.00 | 97 | 1007.5 |
| 20260509161532 | 10 | 236 | 1.6 | 4.8 | 0.00 | 0.00 | 0.00 | 97 | 1007.4 |
| 20260509160034 | 10 | 0 | 1.6 | 4.8 | 0.00 | 0.00 | 0.00 | 97 | 1007.4 |
| 20260509154529 | 10 | 183 | 1.6 | 4.8 | 0.00 | 0.00 | 0.00 | 97 | 1007.4 |
| 20260509153039 | 10 | 162 | 1.6 | 4.8 | 0.00 | 0.00 | 0.00 | 97 | 1007.5 |
| 20260509151528 | 10 | 153 | 1.6 | 4.8 | 0.00 | 0.00 | 0.00 | 97 | 1007.4 |
| 20260509150036 | 10 | 201 | 0.0 | 4.8 | 0.00 | 0.00 | 0.00 | 97 | 1007.5 |
| 20260509144545 | 10 | 174 | 1.6 | 3.2 | 0.00 | 0.00 | 0.00 | 97 | 1007.3 |
| 20260509143028 | 9 | 0 | 1.6 | 4.8 | 0.00 | 0.00 | 0.00 | 97 | 1007.3 |
| 20260509141533 | 9 | 191 | 1.6 | 4.8 | 0.00 | 0.00 | 0.00 | 97 | 1007.4 |
| 20260509140033 | 9 | 200 | 1.6 | 4.8 | 0.00 | 0.00 | 0.00 | 97 | 1007.6 |
| 20260509134556 | 8 | 195 | 1.6 | 4.8 | 0.00 | 0.03 | 0.00 | 97 | 1007.5 |
| 20260509133032 | 8 | 175 | 0.0 | 3.2 | 0.00 | 0.03 | 0.00 | 97 | 1007.5 |
| 20260509131530 | 8 | 0 | 0.0 | 3.2 | 0.00 | 0.03 | 0.00 | 97 | 1007.5 |
| 20260509130039 | 8 | 0 | 0.0 | 3.2 | 0.00 | 0.03 | 0.00 | 97 | 1007.5 |
| 20260509124533 | 8 | 192 | 0.0 | 3.2 | 0.00 | 0.03 | 0.00 | 97 | 1007.6 |
| 20260509123029 | 8 | 159 | 0.0 | 4.8 | 0.00 | 0.03 | 0.00 | 96 | 1007.8 |
| 20260509121540 | 7 | 144 | 1.6 | 3.2 | 0.00 | 0.03 | 0.00 | 96 | 1007.9 |
| 20260509120032 | 7 | 134 | 1.6 | 3.2 | 0.00 | 0.03 | 0.00 | 96 | 1007.9 |
| 20260509114535 | 7 | 141 | 1.6 | 3.2 | 0.00 | 0.03 | 0.00 | 96 | 1007.8 |
| 20260509113035 | 7 | 124 | 1.6 | 3.2 | 0.00 | 0.03 | 0.00 | 96 | 1007.9 |
| 20260509111530 | 7 | 129 | 1.6 | 3.2 | 0.00 | 0.03 | 0.00 | 96 | 1007.9 |
| 20260509110033 | 7 | 121 | 3.2 | 4.8 | 0.00 | 0.03 | 0.00 | 96 | 1007.6 |
| 20260509104539 | 7 | 121 | 1.6 | 4.8 | 0.00 | 0.03 | 0.00 | 96 | 1007.6 |
| 20260509103028 | 7 | 130 | 1.6 | 3.2 | 0.00 | 0.03 | 0.00 | 96 | 1008.0 |
| 20260509101536 | 7 | 134 | 3.2 | 4.8 | 0.00 | 0.03 | 0.00 | 96 | 1007.8 |
| 20260509100029 | 7 | 117 | 1.6 | 3.2 | 0.00 | 0.03 | 0.00 | 96 | 1007.9 |
| 20260509094536 | 7 | 120 | 1.6 | 3.2 | 0.00 | 0.03 | 0.00 | 96 | 1008.1 |
| 20260509093028 | 7 | 124 | 1.6 | 3.2 | 0.00 | 0.03 | 0.00 | 96 | 1008.1 |
| 20260509091537 | 7 | 124 | 3.2 | 4.8 | 0.00 | 0.03 | 0.00 | 96 | 1008.2 |
| 20260509090034 | 7 | 119 | 1.6 | 3.2 | 0.00 | 0.03 | 0.00 | 96 | 1008.3 |
| 20260509084533 | 7 | 0 | 0.0 | 3.2 | 0.00 | 0.03 | 0.00 | 96 | 1008.7 |
| 20260509083029 | 7 | 127 | 1.6 | 3.2 | 0.00 | 0.03 | 0.00 | 96 | 1008.5 |
| 20260509081533 | 7 | 125 | 1.6 | 1.6 | 0.00 | 0.03 | 0.00 | 96 | 1008.5 |
| 20260509080034 | 7 | 123 | 1.6 | 3.2 | 0.00 | 0.03 | 0.00 | 96 | 1008.6 |
| 20260509074540 | 7 | 119 | 1.6 | 3.2 | 0.00 | 0.03 | 0.00 | 96 | 1008.5 |
| 20260509073028 | 7 | 0 | 0.0 | 3.2 | 0.00 | 0.03 | 0.00 | 96 | 1008.3 |
| 20260509071530 | 7 | 115 | 1.6 | 3.2 | 0.00 | 0.03 | 0.00 | 96 | 1008.3 |
| 20260509070028 | 7 | 109 | 1.6 | 3.2 | 0.00 | 0.03 | 0.00 | 96 | 1008.5 |
| 20260509064537 | 7 | 111 | 3.2 | 3.2 | 0.00 | 0.03 | 0.00 | 96 | 1008.5 |
| 20260509063030 | 7 | 110 | 3.2 | 3.2 | 0.00 | 0.03 | 0.00 | 95 | 1008.7 |
| 20260509061532 | 7 | 94 | 1.6 | 4.8 | 0.00 | 0.03 | 0.00 | 95 | 1009.0 |
| 20260509060035 | 7 | 114 | 1.6 | 3.2 | 0.00 | 0.03 | 0.00 | 95 | 1009.4 |
| 20260509054535 | 7 | 122 | 1.6 | 3.2 | 0.00 | 0.03 | 0.00 | 95 | 1009.6 |
| 20260509053030 | 7 | 117 | 3.2 | 3.2 | 0.00 | 0.03 | 0.00 | 95 | 1009.7 |
| 20260509051533 | 7 | 114 | 1.6 | 3.2 | 0.00 | 0.03 | 0.00 | 95 | 1009.8 |
| 20260509050036 | 7 | 120 | 1.6 | 3.2 | 0.00 | 0.03 | 0.00 | 95 | 1010.0 |
| 20260509044531 | 7 | 121 | 1.6 | 3.2 | 0.00 | 0.03 | 0.00 | 95 | 1010.5 |
| 20260509043029 | 7 | 120 | 1.6 | 1.6 | 0.00 | 0.03 | 0.00 | 95 | 1010.8 |
| 20260509041553 | 7 | 120 | 1.6 | 3.2 | 0.00 | 0.03 | 0.00 | 95 | 1010.9 |
| 20260509040031 | 7 | 0 | 0.0 | 1.6 | 0.00 | 0.03 | 0.00 | 95 | 1010.9 |
| 20260509034528 | 7 | 120 | 1.6 | 1.6 | 0.00 | 0.03 | 0.03 | 94 | 1011.1 |
| 20260509033029 | 7 | 120 | 1.6 | 1.6 | 0.00 | 0.03 | 0.03 | 94 | 1011.0 |
| 20260509031536 | 8 | 121 | 1.6 | 3.2 | 0.00 | 0.03 | 0.03 | 94 | 1011.2 |
| 20260509030032 | 8 | 111 | 0.0 | 1.6 | 0.00 | 0.03 | 0.03 | 94 | 1011.3 |
| 20260509024528 | 8 | 0 | 0.0 | 0.0 | 0.00 | 0.03 | 0.03 | 93 | 1011.5 |
| 20260509023031 | 8 | 0 | 0.0 | 0.0 | 0.00 | 0.03 | 0.03 | 93 | 1011.8 |
| 20260509021535 | 7 | 0 | 0.0 | 0.0 | 0.00 | 0.03 | 0.03 | 92 | 1011.5 |
| 20260509020043 | 8 | 0 | 0.0 | 0.0 | 0.00 | 0.03 | 0.03 | 92 | 1011.1 |
| 20260509014532 | 8 | 0 | 0.0 | 0.0 | 0.00 | 0.03 | 0.03 | 91 | 1011.0 |
| 20260509013037 | 8 | 0 | 0.0 | 3.2 | 0.00 | 0.03 | 0.03 | 90 | 1010.8 |
| 20260509011528 | 8 | 0 | 0.0 | 0.0 | 0.00 | 0.03 | 0.03 | 90 | 1010.8 |
| 20260509010034 | 8 | 0 | 0.0 | 3.2 | 0.00 | 0.03 | 0.03 | 90 | 1010.6 |
| 20260509004534 | 8 | 311 | 0.0 | 3.2 | 0.00 | 0.03 | 0.03 | 90 | 1010.2 |
| 20260509003029 | 8 | 0 | 0.0 | 3.2 | 0.00 | 0.03 | 0.03 | 90 | 1010.6 |
| 20260509001530 | 8 | 292 | 0.0 | 3.2 | 0.00 | 0.03 | 0.03 | 90 | 1010.4 |
| 20260509000030 | 8 | 268 | 0.0 | 3.2 | 0.00 | 0.03 | 0.03 | 89 | 1010.4 |
| 20260508234531 | 8 | 0 | 0.0 | 3.2 | 0.00 | 0.03 | 0.03 | 87 | 1009.8 |
| 20260508233029 | 8 | 0 | 0.0 | 3.2 | 0.00 | 0.03 | 0.03 | 86 | 1009.7 |
| 20260508231530 | 8 | 240 | 0.0 | 3.2 | 0.00 | 0.03 | 0.03 | 86 | 1009.7 |
| 20260508230039 | 9 | 253 | 0.0 | 3.2 | 0.00 | 0.03 | 0.03 | 84 | 1010.2 |
| 20260508224529 | 10 | 240 | 1.6 | 6.4 | 0.00 | 0.03 | 0.03 | 81 | 1010.1 |
| 20260508223030 | 10 | 193 | 3.2 | 6.4 | 0.00 | 0.03 | 0.03 | 75 | 1010.3 |
| 20260508221529 | 11 | 234 | 1.6 | 8.0 | 0.00 | 0.03 | 0.03 | 73 | 1010.1 |
| 20260508220030 | 11 | 207 | 3.2 | 8.0 | 0.00 | 0.03 | 0.03 | 73 | 1010.0 |
| 20260508214532 | 11 | 199 | 1.6 | 6.4 | 0.00 | 0.03 | 0.03 | 73 | 1010.3 |